TimeCST,TemperatureF,Dew PointF,Humidity,Sea Level PressureIn,VisibilityMPH,Wind Direction,Wind SpeedMPH,Gust SpeedMPH,PrecipitationIn,Events,Conditions,WindDirDegrees,DateUTC
12:04 AM,66.2,64.4,94,29.54,3.0,SSE,12.7,-,0.04,Rain,Heavy Rain,160,2013-02-26 06:04:00
12:12 AM,66.2,64.4,94,29.54,4.0,SSE,12.7,-,0.07,Rain,Heavy Rain,160,2013-02-26 06:12:00
12:19 AM,66.2,64.4,94,29.55,5.0,South,13.8,20.7,0.11,Rain,Rain,180,2013-02-26 06:19:00
12:42 AM,66.2,64.4,94,29.56,8.0,SSW,6.9,17.3,0.19,Rain,Light Rain,200,2013-02-26 06:42:00
12:56 AM,66.9,64.9,93,29.51,7.0,SSW,5.8,-,0.20,Rain,Light Rain,210,2013-02-26 06:56:00
1:56 AM,66.0,64.0,93,29.49,10.0,SSW,5.8,-,0.00,,Mostly Cloudy,210,2013-02-26 07:56:00
2:04 AM,66.2,62.6,88,29.53,10.0,SW,6.9,-,N/A,,Mostly Cloudy,230,2013-02-26 08:04:00
2:56 AM,64.0,57.0,78,29.50,10.0,Variable,5.8,-,N/A,,Mostly Cloudy,0,2013-02-26 08:56:00
3:56 AM,61.0,54.0,78,29.53,10.0,SW,4.6,-,N/A,,Mostly Cloudy,230,2013-02-26 09:56:00
4:56 AM,57.9,48.9,72,29.55,10.0,Variable,4.6,-,N/A,,Partly Cloudy,0,2013-02-26 10:56:00
5:56 AM,55.9,46.9,72,29.57,10.0,Variable,4.6,-,N/A,,Clear,0,2013-02-26 11:56:00
6:56 AM,55.9,45.0,67,29.60,10.0,Variable,5.8,-,N/A,,Clear,0,2013-02-26 12:56:00
7:56 AM,55.9,44.1,64,29.64,10.0,WSW,8.1,-,N/A,,Clear,240,2013-02-26 13:56:00
8:56 AM,57.0,41.0,55,29.66,10.0,West,8.1,16.1,N/A,,Scattered Clouds,260,2013-02-26 14:56:00
9:56 AM,57.0,39.9,53,29.68,10.0,WSW,9.2,20.7,N/A,,Clear,240,2013-02-26 15:56:00
10:56 AM,59.0,39.0,48,29.69,10.0,SW,8.1,17.3,N/A,,Clear,230,2013-02-26 16:56:00
11:56 AM,60.1,37.9,44,29.69,10.0,WSW,11.5,21.9,N/A,,Clear,240,2013-02-26 17:56:00
12:56 PM,60.1,37.9,44,29.68,10.0,Variable,6.9,18.4,N/A,,Clear,0,2013-02-26 18:56:00
1:56 PM,62.1,39.0,43,29.67,10.0,Variable,6.9,-,N/A,,Clear,0,2013-02-26 19:56:00
2:56 PM,60.1,39.9,47,29.68,10.0,WSW,10.4,-,N/A,,Clear,240,2013-02-26 20:56:00
3:56 PM,57.0,42.1,57,29.70,10.0,SSW,10.4,18.4,N/A,,Clear,210,2013-02-26 21:56:00
4:56 PM,55.0,42.1,62,29.73,10.0,SW,9.2,17.3,N/A,,Clear,230,2013-02-26 22:56:00
5:56 PM,54.0,42.1,64,29.75,10.0,SW,4.6,-,N/A,,Clear,230,2013-02-26 23:56:00
6:56 PM,52.0,42.1,69,29.78,10.0,Variable,5.8,-,N/A,,Clear,0,2013-02-27 00:56:00
7:56 PM,53.1,42.1,66,29.81,10.0,Variable,3.5,-,N/A,,Clear,0,2013-02-27 01:56:00
8:56 PM,52.0,42.1,69,29.84,10.0,Variable,3.5,-,N/A,,Clear,0,2013-02-27 02:56:00
9:56 PM,51.1,42.1,71,29.86,10.0,Calm,Calm,-,N/A,,Clear,0,2013-02-27 03:56:00
10:56 PM,50.0,43.0,77,29.88,10.0,Calm,Calm,-,N/A,,Clear,0,2013-02-27 04:56:00
11:56 PM,50.0,43.0,77,29.89,10.0,NW,4.6,-,N/A,,Clear,320,2013-02-27 05:56:00